This demonstration page uses our WeatherBlox Daily Observations layout. Learn more.

Left ArrowRight Arrow

Hourly Observations for December 24, 2021

Temp ( °F °C ) Dew Point ( °F °C ) Humidity (%) Winds ( mph kmh ) Pressure ( in mb ) Visibility ( mi km ) Precip ( " mm )
12:56 am 00:56 Clear 35 1.8 33 0.5 91 91 SSE 6 9 29.58 1002 8 13 0.00 0.00
1:56 am 01:56 Clear with Mist and Fog 36 2.1 35 1.5 96 96 SSE 7 11 29.54 1001 4 6 0.00 0.00
2:56 am 02:56 Partly Cloudy with Mist and Fog 37 2.8 37 2.7 99 99 SSE 6 9 29.54 1000 4 6 0.00 0.00
3:56 am 03:56 Partly Cloudy with Mist and Fog 37 2.6 37 2.5 99 99 SSE 7 11 29.49 999 7 11 0.00 0.00
4:30 am 04:30 Partly Cloudy with Mist and Fog 37 3 37 3 100 100 ESE 3 6 29.48 998 3 5 0.00 0.00
4:35 am 04:35 Partly Cloudy with Mist and Fog 37 3 37 3 100 100 SE 5 7 29.48 998 3 5 0.00 0.00
4:41 am 04:41 Partly Cloudy with Fog 37 3 37 3 100 100 SE 5 7 29.48 998 0 0 0.00 0.00
4:48 am 04:48 Partly Cloudy with Fog 37 3 37 3 100 100 ESE 5 7 29.47 998 0 0 0.00 0.00
4:56 am 04:56 Clear with Fog 37 2.6 37 2.5 99 99 ESE 5 7 29.46 998 0 0 0.00 0.00
5:09 am 05:09 Clear with Fog 37 3 37 3 100 100 ESE 5 7 29.46 998 0 0 0.00 0.00
5:19 am 05:19 Clear with Fog 37 3 37 3 100 100 SE 8 13 29.46 998 0 0 0.00 0.00
5:56 am 05:56 Clear with Fog 38 3.3 38 3.3 100 100 SSE 9 15 29.45 997 3 5 0.00 0.00
6:16 am 06:16 Clear with Fog 39 4 39 4 100 100 SE 9 15 29.45 997 0 0 0.00 0.00
6:56 am 06:56 Mostly Cloudy with Fog 40 4.4 40 4.4 100 100 SSE 10 17 29.44 997 0 0 0.00 0.00
7:21 am 07:21 Mostly Cloudy with Fog 41 5 41 5 100 100 E 3 6 29.45 997 0 0 0.00 0.00
7:56 am 07:56 Mostly Cloudy with Fog 40 4.5 40 4.5 100 100 SE 3 6 29.45 997 1 2 0.00 0.00
8:17 am 08:17 Mostly Cloudy with Fog 39 4 39 4 100 100 SSE 6 9 29.44 997 1 2 0.00 0.00
8:56 am 08:56 Partly Cloudy with Fog 41 4.9 41 4.9 100 100 S 8 13 29.43 997 1 2 0.00 0.00
9:27 am 09:27 Mostly Cloudy with Fog 41 5 41 5 100 100 SSW 7 11 29.44 997 0 0 0.00 0.00
9:35 am 09:35 Mostly Cloudy with Fog 43 6 43 6 100 100 S 8 13 29.44 997 1 1 0.00 0.00
9:45 am 09:45 Cloudy with Mist and Fog 43 6 43 6 100 100 S 7 11 29.44 997 7 11 0.00 0.00
9:48 am 09:48 Cloudy with Mist and Fog 43 6 43 6 100 100 S 8 13 29.44 997 1 2 0.00 0.00
9:56 am 09:56 Cloudy with Mist and Fog 42 5.7 42 5.7 100 100 SSW 9 15 29.44 997 3 4 0.00 0.00
10:11 am 10:11 Partly Cloudy with Mist and Fog 43 6 43 6 100 100 SSW 6 9 29.43 997 5 8 0.00 0.00
10:56 am 10:56 Mostly Cloudy 43 6 43 6 100 100 SSW 7 11 29.43 997 10 16 0.00 0.00
11:56 am 11:56 undefined 48 8.9 40 4.3 73 73 W 6 9 29.39 995 10 16 0.00 0.00
12:56 pm 12:56 undefined 51 10.4 37 3 60 60 WNW 3 6 29.39 995 10 16 0.00 0.00
1:56 pm 13:56 Sunny 53 11.8 36 2.3 52 52 W 6 9 29.38 995 10 16 0.00 0.00
2:56 pm 14:56 Mostly Sunny 55 12.8 34 1.2 45 45 NNW 10 17 29.40 996 10 16 0.00 0.00
3:56 pm 15:56 Mostly Cloudy 55 12.9 35 1.6 46 46 N 6 9 29.44 997 10 16 0.00 0.00
4:56 pm 16:56 Cloudy 51 10.6 34 1.1 52 52 N 8 13 29.47 998 10 16 0.00 0.00
5:56 pm 17:56 Cloudy 49 9.5 35 1.6 58 58 N 6 9 29.51 999 10 16 0.00 0.00
6:56 pm 18:56 undefined 49 9.3 35 1.7 59 59 NNW 8 13 29.53 1000 10 16 0.00 0.00
7:56 pm 19:56 Mostly Cloudy 49 9.5 34 1.2 57 57 N 14 22 29.53 1000 10 16 0.00 0.00
8:56 pm 20:56 Partly Cloudy 47 8.1 34 1 61 61 N 12 19 29.56 1001 10 16 0.00 0.00
9:56 pm 21:56 Mostly Cloudy 45 7.4 34 1 64 64 N 8 13 29.57 1001 10 16 0.00 0.00
10:56 pm 22:56 Cloudy 44 6.7 33 0.6 65 65 N 9 15 29.61 1003 10 16 0.00 0.00
11:56 pm 23:56 Mostly Cloudy 42 5.8 27 -3 54 54 N 9 15 29.63 1004 10 16 0.00 0.00

Powered by AerisWeather